Flag for Cameroon

Past Weather in Yaoundé, Cameroon — Yesterday and Last 2 Weeks

Now
72 °F

Passing clouds.


Feels Like: 67 °F
Forecast: 75 / 67 °F
Wind: 2 mph from North

Location: Yaounde Airport

Current Time: Jul 10, 2020 at 9:17:24 pm

Latest Report: Jul 10, 2020 at 8:00 pm


Visibility: 5 mi

Pressure: 30.04 "Hg (27.65 "Hg at 717m altitude)

Humidity: 94%

Dew Point: 70 °F

Location of YaoundéLocation

Past Weather in Yaoundé — Graph

°F

Yaoundé Temperature Yesterday

Maximum temperature yesterday: 81 °F (at 1:00 pm)
Minimum temperature yesterday: 70 °F (at 4:00 am)
Average temperature yesterday: 74 °F

High & Low Weather Summary for the Past Weeks

 TemperatureHumidityPressure
High86 °F (Jul 2, 3:00 pm)100% (Jun 25, 11:00 pm)30.09 "Hg (Jun 25, 11:00 pm)
Low66 °F (Jun 30, 11:00 pm)62% (Jul 1, 5:00 pm)29.92 "Hg (Jun 26, 4:00 pm)
Average73 °F91%30.02 "Hg
* Reported Jun 25 8:00 pm — Jul 10 8:00 pm, Yaoundé. Weather by CustomWeather, © 2020

Note: Actual official high and low records may vary slightly from our data, if they occured in-between our weather recording intervals... More about our weather records

Yaoundé Weather History for the Previous 24 Hours

Scroll right to see more
 ConditionsComfort  
Time TempWeatherWind HumidityBarometerVisibility
8:00 pm
Fri, Jul 10
72 °FPassing clouds.2 mph94%30.04 "Hg5 mi
7:00 pm73 °FPassing clouds.3 mph89%30.01 "Hg5 mi
6:00 pm73 °FScattered clouds.5 mph89%29.98 "Hg5 mi
5:00 pm75 °FPartly sunny.10 mph83%29.98 "Hg5 mi
4:00 pm77 °FPartly sunny.8 mph83%29.98 "HgN/A
3:00 pm77 °FPartly sunny.9 mph83%29.98 "HgN/A
2:00 pm77 °FPartly sunny.8 mph83%30.01 "HgN/A
12:00 pm77 °FPartly sunny.7 mph83%30.04 "HgN/A
11:00 am75 °FPartly sunny.8 mph89%30.04 "HgN/A
10:00 am73 °FPartly sunny.6 mph89%30.07 "HgN/A
9:00 am70 °FPartly sunny.6 mph100%30.07 "HgN/A
8:00 am70 °FPartly sunny.1 mph94%30.04 "HgN/A
7:00 am68 °FPartly sunny.No wind100%30.04 "Hg5 mi
6:00 am68 °FPassing clouds.2 mph100%30.04 "Hg5 mi
4:00 am68 °FPassing clouds.2 mph100%30.01 "HgN/A
3:00 am68 °FPassing clouds.2 mph100%30.04 "HgN/A
2:00 am68 °FPassing clouds.2 mph100%30.04 "HgN/A
1:00 am68 °FPassing clouds.7 mph100%30.07 "HgN/A
12:00 am72 °FPassing clouds.7 mph94%30.07 "HgN/A
11:00 pm
Thu, Jul 9
72 °FPassing clouds.3 mph94%30.07 "HgN/A
10:00 pm72 °FPassing clouds.5 mph94%30.07 "HgN/A
9:00 pm72 °FPassing clouds.2 mph100%30.04 "HgN/A
Weather by CustomWeather, © 2020

See weather overview